Change the Weather History Date:

Wednesday, November 7, 2012

  Actual Average Record
Temperature  
Mean Temperature 62 °F -  
Max Temperature 81 °F 69 °F 89 °F (2005)
Min Temperature 42 °F 41 °F 21 °F (1938)
Degree Days  
Heating Degree Days 4    
Growing Degree Days 12 (Base 50)    
Moisture  
Dew Point 39 °F    
Average Humidity 49    
Maximum Humidity 79    
Minimum Humidity 19    
Precipitation  
Precipitation 0.00 in - - ()
Sea Level Pressure  
Sea Level Pressure 30.01 in    
Wind  
Wind Speed 7 mph (ESE)    
Max Wind Speed 12 mph    
Max Gust Speed -    
Visibility 10 miles    
Events      
Averages and records for this station are not official NWS values.
T = Trace of Precipitation, MM = Missing Value Source: NWS Daily Summary

Daily Weather History Graph

Daily Weather History Graph

Search for Another Location

Airport or City:

Trip Planner

Search our weather history database for the weather conditions in past years. The results will help you decide how hot, cold, wet, or windy it might be!

Date:

Astronomy

Nov. 07, 2012 Rise Set
Actual Time 7:14 AM CST 5:58 PM CST
Civil Twilight 6:49 AM CST 6:23 PM CST
Nautical Twilight 6:20 AM CST 6:52 PM CST
Astronomical Twilight 5:51 AM CST 7:21 PM CST
Moon 12:35 AM CST (11/7) 1:46 PM CST (11/7)
Length of Visible Light 11h 34m
Length of Day
10h 43m
Last Quarter, 43% of the Moon is Illuminated
Nov 7
Last Quarter
Nov 13
New
Nov 20
First Quarter
Nov 28
Full
Dec 6
Last Quarter

Hourly Weather History & Observations

Time (CST) Temp. Windchill Dew Point Humidity Pressure Visibility Wind Dir Wind Speed Gust Speed Precip Events Conditions
12:53 AM 54.0 °F - 39.9 °F 59% 30.07 in 10.0 mi East 8.1 mph - N/A   Clear
1:53 AM 52.0 °F - 39.9 °F 63% 30.06 in 10.0 mi East 6.9 mph - N/A   Clear
2:53 AM 53.1 °F - 39.9 °F 61% 30.04 in 10.0 mi ESE 8.1 mph - N/A   Clear
3:53 AM 50.0 °F - 39.9 °F 68% 30.04 in 10.0 mi ENE 3.5 mph - N/A   Clear
4:53 AM 44.1 °F 40.8 °F 37.0 °F 76% 30.06 in 10.0 mi North 5.8 mph - N/A   Clear
5:53 AM 43.0 °F 40.3 °F 36.0 °F 76% 30.08 in 10.0 mi North 4.6 mph - N/A   Clear
6:53 AM 42.1 °F 38.4 °F 36.0 °F 79% 30.10 in 10.0 mi North 5.8 mph - N/A   Clear
7:53 AM 45.0 °F 43.5 °F 37.0 °F 74% 30.12 in 10.0 mi North 3.5 mph - N/A   Clear
8:53 AM 55.0 °F - 41.0 °F 59% 30.11 in 10.0 mi Calm Calm - N/A   Clear
9:53 AM 61.0 °F - 44.1 °F 54% 30.10 in 10.0 mi SE 6.9 mph - N/A   Clear
10:53 AM 66.9 °F - 41.0 °F 39% 30.08 in 10.0 mi SE 4.6 mph - N/A   Clear
11:53 AM 69.1 °F - 39.0 °F 33% 30.06 in 10.0 mi South 5.8 mph - N/A   Clear
12:53 PM 73.9 °F - 39.0 °F 28% 30.01 in 10.0 mi South 5.8 mph - N/A   Clear
1:53 PM 78.1 °F - 37.0 °F 23% 29.96 in 10.0 mi Variable 5.8 mph - N/A   Clear
2:53 PM 80.1 °F - 36.0 °F 20% 29.93 in 10.0 mi SSW 8.1 mph - N/A   Clear
3:53 PM 81.0 °F - 36.0 °F 20% 29.92 in 10.0 mi SE 6.9 mph - N/A   Clear
4:53 PM 80.1 °F - 34.0 °F 19% 29.92 in 10.0 mi SSE 9.2 mph - N/A   Clear
5:53 PM 73.0 °F - 37.0 °F 27% 29.93 in 10.0 mi SE 8.1 mph - N/A   Clear
6:53 PM 66.0 °F - 36.0 °F 33% 29.95 in 10.0 mi SE 8.1 mph - N/A   Clear
7:53 PM 66.9 °F - 41.0 °F 39% 29.96 in 10.0 mi SE 11.5 mph - N/A   Clear
8:53 PM 63.0 °F - 42.1 °F 46% 29.95 in 10.0 mi SE 9.2 mph - N/A   Clear
9:53 PM 60.1 °F - 43.0 °F 53% 29.95 in 10.0 mi SE 8.1 mph - N/A   Clear
10:53 PM 61.0 °F - 45.0 °F 56% 29.94 in 10.0 mi SE 9.2 mph - N/A   Clear
11:53 PM 57.0 °F - 46.0 °F 67% 29.93 in 10.0 mi SE 8.1 mph - N/A   Clear